Location: Saluda
(35.2377°N, 82.3468°W)
Time: 04:27:20
(UTC+00:00)

Vanguard 2 Rocket - Pass Details

Date: 04 October 2022
Orbit: 555 x 3321 km, 32.9° (Epoch: 05 December)

Event Time Altitude Azimuth Distance (km) Brightness Sun altitude
Rises 04:58:41 0° 256° (WSW) 6,709 11.3 -58.8°
Enters shadow 05:02:25 - 255° (WSW) 5,704 10.9 -58.9°
Reaches altitude 10° 05:03:43 10° 255° (WSW) 5,338 - -58.9°
Maximum altitude 05:18:04 75° 173° (S) 1,740 - -59.1°
Drops below altitude 10° 05:25:53 10° 89° (E) 3,067 - -59.1°
Sets 05:28:02 0° 88° (E) 3,777 - -59.0°
